Location: Writing-on-Stone Provincial Park
(49.0825°N, 111.6163°W)
Time: 15:16:28
(UTC-07:00)

Amateur Radio Satellites - All Passes

Search period start: 10 December 2016 14:46
Search period end: 11 December 2016 14:46
Location: Writing-on-Stone Provincial Park, 49.0825°N, 111.6163°W

Satellite Date Start Highest point End Downlink Frequencies (MHz)
Time Altitude Azimuth
Gurwin Techsat 1B 10 Dec 14:53:31 14:57:18 19° 270° (W) 15:01:06 435.225
ITAMSAT 1 10 Dec 14:54:20 14:59:30 63° 258° (WSW) 15:04:41 435.822/435.867
M-CUBED/EXP-1 PRIME 10 Dec 14:55:32 14:59:50 35° 102° (ESE) 15:03:56 437.505
UKube-1 10 Dec 15:01:55 15:04:07 14° 303° (WNW) 15:06:19 .
DX 1 10 Dec 15:05:59 15:06:58 11° 306° (NW) 15:07:56 434.975-435.025
SWISSCUBE 10 Dec 15:12:37 15:17:23 75° 103° (ESE) 15:22:08 437.505
BEESAT 10 Dec 15:16:06 15:20:53 73° 103° (ESE) 15:25:37 436.000
Cosmos 2491 10 Dec 15:23:48 15:28:34 15° 47° (NE) 15:33:20 435.465 / 435.565
KKS-1 10 Dec 15:31:50 15:33:58 13° 88° (E) 15:36:06 437.445
NOAA 15 10 Dec 15:36:56 15:37:39 10° 48° (NE) 15:38:22 137.62
MOZHAYETS 4 10 Dec 15:37:12 15:41:22 34° 96° (E) 15:45:31
BRITE-PL 10 Dec 15:41:37 15:45:24 26° 62° (ENE) 15:49:26 437.365/2234.400
O/OREOS (USA 219) 10 Dec 15:42:45 15:47:18 77° 114° (ESE) 15:51:50 437.305
HORYU 2 10 Dec 15:47:03 15:50:36 24° 62° (ENE) 15:54:10 437.375
ITUPSAT 1 10 Dec 15:47:20 15:52:02 62° 289° (WNW) 15:56:44 437.325
Cubesat XI-IV 10 Dec 15:56:19 15:58:57 14° 52° (NE) 16:01:36 437.490
ISS 10 Dec 16:01:29 16:04:45 63° 154° (SSE) 16:08:02 145.825
AUBIESAT-1 10 Dec 16:13:05 16:17:34 54° 295° (WNW) 16:21:51 437.475
DOVE 4 10 Dec 16:15:10 16:17:49 14° 54° (NE) 16:20:31 437.250
AIST 2 10 Dec 16:18:15 16:22:09 37° 240° (WSW) 16:26:03 435.215
NOAA 18 10 Dec 16:20:29 16:23:45 16° 52° (NE) 16:27:00 137.9125
PCSat 10 Dec 16:21:56 16:24:22 13° 13° (NNE) 16:26:48 145.827
AO-7 10 Dec 16:22:18 16:29:32 32° 266° (W) 16:36:52 29.400- 29.500
GOMX 1 10 Dec 16:28:38 16:32:56 33° 64° (ENE) 16:37:31 467.674
M-CUBED/EXP-1 PRIME 10 Dec 16:30:01 16:34:13 34° 301° (WNW) 16:38:16 437.505
SWISSCUBE 10 Dec 16:51:32 16:54:39 18° 303° (WNW) 16:57:45 437.505
BEESAT 10 Dec 16:54:58 16:58:09 18° 302° (WNW) 17:01:18 436.000
RS-15 10 Dec 16:55:17 17:06:58 52° 247° (WSW) 17:18:20 29.354- 29.394
STARS 10 Dec 16:58:13 17:02:28 43° 99° (E) 17:06:39 437.465
CINEMA 3 10 Dec 16:58:41 16:58:56 10° 51° (NE) 16:59:10 145.822/145.860
CUTE-I 10 Dec 17:05:27 17:10:30 43° 66° (ENE) 17:15:34 437.470
KKS-1 10 Dec 17:06:37 17:11:08 80° 285° (WNW) 17:15:35 437.445
LilacSat-2 10 Dec 17:06:47 17:10:17 35° 69° (ENE) 17:13:48 437.200
NOAA 15 10 Dec 17:11:14 17:16:18 52° 68° (ENE) 17:21:24 137.62
HO-68 10 Dec 17:11:41 17:16:41 21° 48° (NE) 17:21:42 435.675
MOZHAYETS 4 10 Dec 17:14:27 17:18:29 31° 294° (WNW) 17:22:30
Cosmos 2491 10 Dec 17:19:12 17:27:48 57° 73° (ENE) 17:36:20 435.465 / 435.565
BRITE-PL 10 Dec 17:19:22 17:23:39 44° 263° (W) 17:28:19 437.365/2234.400
HORYU 2 10 Dec 17:22:36 17:26:54 46° 260° (W) 17:31:15 437.375
O/OREOS (USA 219) 10 Dec 17:24:04 17:27:16 18° 315° (NW) 17:30:27 437.305
ITUPSAT 1 10 Dec 17:27:55 17:28:56 11° 309° (NW) 17:29:58 437.325
CUBESAT XI-V 10 Dec 17:30:31 17:35:12 71° 102° (ESE) 17:39:52 437.345
CANX-2 10 Dec 17:31:53 17:32:41 10° 56° (NE) 17:33:29 2200.000
Cubesat XI-IV 10 Dec 17:32:46 17:38:07 70° 71° (ENE) 17:43:29 437.490
ISS 10 Dec 17:38:05 17:41:20 54° 354° (N) 17:44:36 145.825
Cosmos 2504 10 Dec 17:41:36 17:45:37 14° 69° (ENE) 17:49:41 435.465 / 435.565
DOVE 4 10 Dec 17:49:36 17:54:35 76° 74° (ENE) 17:59:51 437.250
AUBIESAT-1 10 Dec 17:50:13 17:50:58 10° 315° (NW) 17:51:43 437.475
YUBILEINY 10 Dec 17:50:31 17:57:53 32° 81° (E) 18:05:17 435.215
NOAA 18 10 Dec 17:58:00 18:03:33 78° 72° (ENE) 18:09:08 137.9125
PCSat 10 Dec 18:04:54 18:09:37 29° 38° (NE) 18:14:21 145.827
GOMX 1 10 Dec 18:06:29 18:10:57 38° 265° (W) 18:15:44 467.674
AIST 1 10 Dec 18:15:22 18:16:52 12° 81° (E) 18:18:22
CUBEBUG 2 10 Dec 18:15:50 18:18:08 14° 57° (ENE) 18:20:25 437.445
STRAND 1 10 Dec 18:23:29 18:25:05 11° 85° (E) 18:26:40 437.568
CINEMA 3 10 Dec 18:30:08 18:35:00 54° 70° (ENE) 18:39:54 145.822/145.860
STARS 10 Dec 18:35:01 18:38:36 25° 297° (WNW) 18:42:09 437.465
LilacSat-2 10 Dec 18:41:40 18:44:41 22° 267° (W) 18:47:42 437.200
AAUSAT CUBESAT 2 10 Dec 18:44:10 18:46:53 17° 61° (ENE) 18:49:37 437.432
CUTE 1.7 + AOD 2 10 Dec 18:44:43 18:48:41 42° 69° (ENE) 18:52:40 437.475
KKS-1 10 Dec 18:45:08 18:46:56 12° 305° (NW) 18:48:45 437.445
CUTE-I 10 Dec 18:45:55 18:50:41 32° 265° (W) 18:55:27 437.470
UWE-3 10 Dec 18:46:26 18:49:19 17° 60° (ENE) 18:52:11 435.000/436.395/437.385
NOAA 15 10 Dec 18:52:04 18:56:22 25° 267° (W) 19:00:43 137.62
HO-68 10 Dec 18:56:12 19:03:22 77° 69° (ENE) 19:10:34 435.675
CANX-2 10 Dec 19:03:35 19:07:48 76° 75° (ENE) 19:12:01 2200.000
CUBESAT XI-V 10 Dec 19:08:59 19:12:04 18° 301° (WNW) 19:15:10 437.345
RS-15 10 Dec 19:12:37 19:16:07 12° 271° (W) 19:19:38 29.354- 29.394
ISS 10 Dec 19:14:46 19:18:04 68° 13° (NNE) 19:21:23 145.825
Cubesat XI-IV 10 Dec 19:14:53 19:18:43 20° 270° (W) 19:22:34 437.490
ZACube-1 10 Dec 19:15:09 19:18:19 19° 61° (ENE) 19:21:26 437.345
Cosmos 2491 10 Dec 19:16:32 19:24:19 38° 276° (W) 19:32:06 435.465 / 435.565
SEEDS 10 Dec 19:17:57 19:22:03 64° 74° (ENE) 19:26:12 437.485
COMPASS 1 10 Dec 19:18:22 19:22:17 44° 70° (ENE) 19:26:15 437.405
FUNcube-1 10 Dec 19:19:42 19:22:53 20° 62° (ENE) 19:26:02 145.935
Cosmos 2504 10 Dec 19:28:41 19:37:03 61° 91° (E) 19:45:45 435.465 / 435.565
DOVE 4 10 Dec 19:29:40 19:32:55 17° 274° (W) 19:36:15 437.250
SO-50 10 Dec 19:32:06 19:36:48 62° 125° (SE) 19:41:27 436.795
DANDE 10 Dec 19:38:06 19:39:06 11° 69° (ENE) 19:40:09 436.750
CUSAT 1 10 Dec 19:39:42 19:43:31 61° 78° (ENE) 19:48:32 437.405
NOAA 18 10 Dec 19:41:03 19:44:50 18° 271° (W) 19:48:39 137.9125
Oscar 11 10 Dec 19:42:46 19:46:27 28° 66° (ENE) 19:50:10 145.826/435.025
YUBILEINY 10 Dec 19:45:22 19:54:02 68° 284° (WNW) 20:02:50 435.215
PCSat 10 Dec 19:48:05 19:53:30 68° 240° (WSW) 19:58:52 145.827
CUBEBUG 2 10 Dec 19:49:19 19:54:04 84° 73° (ENE) 19:58:45 437.445
AIST 1 10 Dec 19:49:25 19:53:45 82° 279° (W) 19:58:10
STRAND 1 10 Dec 20:00:00 20:05:08 77° 104° (ESE) 20:10:13 437.568
CINEMA 3 10 Dec 20:08:27 20:12:25 23° 269° (W) 20:16:25 145.822/145.860
AAUSAT CUBESAT 2 10 Dec 20:17:56 20:21:58 56° 260° (W) 20:26:03 437.432
UWE-3 10 Dec 20:20:39 20:25:16 74° 258° (WSW) 20:29:49 435.000/436.395/437.385
CUTE 1.7 + AOD 2 10 Dec 20:21:27 20:24:42 21° 268° (W) 20:27:59 437.475
DELFI C3 10 Dec 20:30:14 20:33:41 30° 67° (ENE) 20:37:10 145.870
CANX-2 10 Dec 20:42:24 20:44:11 12° 273° (W) 20:45:59 2200.000
HO-68 10 Dec 20:46:09 20:51:49 25° 270° (W) 20:57:32 435.675
ZACube-1 10 Dec 20:49:46 20:54:13 59° 259° (W) 20:58:36 437.345
ISS 10 Dec 20:51:24 20:54:28 35° 213° (SSW) 20:57:31 145.825
FUNcube-1 10 Dec 20:54:20 20:58:45 57° 259° (W) 21:03:07 145.935
COMPASS 1 10 Dec 20:55:02 20:58:04 20° 268° (W) 21:01:08 437.405
SEEDS 10 Dec 20:55:56 20:58:12 14° 271° (W) 21:00:28 437.485
PRISM 10 Dec 21:11:31 21:15:15 31° 96° (E) 21:18:59 437.425
SO-50 10 Dec 21:13:29 21:17:37 29° 325° (NW) 21:21:42 436.795
Oscar 11 10 Dec 21:18:35 21:22:30 34° 264° (W) 21:26:28 145.826/435.025
DANDE 10 Dec 21:19:00 21:21:50 39° 261° (W) 21:25:18 436.750
CUSAT 1 10 Dec 21:22:53 21:25:16 15° 268° (W) 21:27:59 437.405
Cosmos 2504 10 Dec 21:22:59 21:30:55 39° 294° (WNW) 21:39:09 435.465 / 435.565
CUBEBUG 2 10 Dec 21:28:57 21:31:16 13° 273° (W) 21:33:34 437.445
HUMSAT D 10 Dec 21:30:09 21:34:19 72° 74° (ENE) 21:38:27 437.325/437.525
AIST 1 10 Dec 21:31:06 21:32:10 11° 300° (WNW) 21:33:14
PCSat 10 Dec 21:34:11 21:35:53 11° 258° (WSW) 21:37:34 145.827
STRAND 1 10 Dec 21:40:16 21:43:45 19° 303° (WNW) 21:47:13 437.568
UNISAT 6 10 Dec 21:47:02 21:50:14 20° 91° (E) 21:53:23 437.425
YUBILEINY 10 Dec 21:47:10 21:52:51 18° 309° (NW) 21:58:36 435.215
DELFI C3 10 Dec 22:05:10 22:08:30 26° 265° (W) 22:11:53 145.870
TIGRISAT 10 Dec 22:14:46 22:18:45 33° 96° (E) 22:22:39 435.000
ANTELSAT 10 Dec 22:17:38 22:21:43 37° 97° (E) 22:25:43 437.575/2403.000
Cosmos 2499 10 Dec 22:18:29 22:21:57 13° 68° (ENE) 22:25:26 435.465 / 435.565
JAS-2 10 Dec 22:19:33 22:20:30 10° 85° (E) 22:21:29 435.910
AISAT 10 Dec 22:20:00 22:23:19 21° 61° (ENE) 22:26:40 437.250
CUBEBUG 1 10 Dec 22:30:44 22:34:39 33° 66° (ENE) 22:38:36 437.445
GONETS M04 10 Dec 22:33:17 22:37:18 14° 70° (ENE) 22:41:17
ESTCUBE 1 10 Dec 22:35:21 22:39:43 56° 71° (ENE) 22:44:08 437.505/2401.250
PRISM 10 Dec 22:46:52 22:50:30 30° 295° (WNW) 22:54:09 437.425
UKube-1 10 Dec 22:48:27 22:51:11 17° 59° (ENE) 22:53:56 .
SPROUT 10 Dec 22:48:40 22:52:07 24° 64° (ENE) 22:55:35 437.525
DX 1 10 Dec 22:51:25 22:54:48 22° 62° (ENE) 22:58:12 434.975-435.025
VELOX 1 10 Dec 22:55:30 22:59:37 40° 68° (ENE) 23:03:47 145.980
SO-50 10 Dec 22:57:23 22:59:33 13° 349° (NNW) 23:01:43 436.795
QB50P2 10 Dec 23:01:39 23:04:06 15° 89° (E) 23:06:31 145.880/145.840
POLYITAN 1 10 Dec 23:02:10 23:04:26 14° 89° (E) 23:06:41 437.675
50 SAT 10 Dec 23:05:11 23:08:23 35° 69° (ENE) 23:11:38 437.505
HUMSAT D 10 Dec 23:08:31 23:10:25 13° 272° (W) 23:12:19 437.325/437.525
DUCHIFAT 1 10 Dec 23:09:46 23:12:06 14° 89° (E) 23:14:25 145.980
QB50P1 10 Dec 23:12:52 23:15:48 18° 91° (E) 23:18:42 145.935-145.965
UNISAT 6 10 Dec 23:23:00 23:27:15 49° 290° (WNW) 23:31:24 437.425
Cosmos 2504 10 Dec 23:25:43 23:27:35 11° 322° (NW) 23:29:27 435.465 / 435.565
PHONESAT 2.4 10 Dec 23:29:38 23:30:28 11° 168° (SSE) 23:31:18 2401.200-2431.200
POPSAT HIP 1 10 Dec 23:34:25 23:38:07 28° 95° (E) 23:41:46 437.405
BUGSAT 1 10 Dec 23:44:31 23:46:29 13° 88° (E) 23:48:28 437.445
TISAT 1 10 Dec 23:51:18 23:54:25 20° 61° (ENE) 23:57:31 437.305
TIGRISAT 10 Dec 23:51:36 23:55:23 29° 295° (WNW) 23:59:06 435.000
ANTELSAT 10 Dec 23:54:38 23:58:18 26° 296° (WNW) 00:01:52 437.575/2403.000
AISAT 10 Dec 23:55:06 23:59:27 53° 260° (W) 00:03:50 437.250
JAS-2 11 Dec 00:01:19 00:06:32 75° 104° (ESE) 00:12:04 435.910
Cosmos 2499 11 Dec 00:04:35 00:13:02 56° 90° (E) 00:21:39 435.465 / 435.565
CUBEBUG 1 11 Dec 00:07:03 00:10:56 31° 265° (W) 00:14:52 437.445
O/OREOS (USA 219) 11 Dec 00:09:39 00:13:54 40° 56° (NE) 00:18:07 437.305
M-CUBED/EXP-1 PRIME 11 Dec 00:12:54 00:15:17 14° 49° (NE) 00:17:43 437.505
ESTCUBE 1 11 Dec 00:13:45 00:16:53 18° 269° (W) 00:20:02 437.505/2401.250
UKube-1 11 Dec 00:22:27 00:26:45 68° 257° (WSW) 00:31:05 .
GONETS M04 11 Dec 00:23:43 00:32:15 64° 92° (E) 00:40:48
SPROUT 11 Dec 00:23:44 00:27:50 42° 262° (W) 00:31:58 437.525
NANOSAT C BR1 11 Dec 00:24:42 00:28:58 87° 102° (ESE) 00:33:10 145.865
DX 1 11 Dec 00:26:31 00:30:43 47° 260° (W) 00:34:59 434.975-435.025
VELOX 1 11 Dec 00:32:32 00:36:13 25° 266° (W) 00:39:56 145.980
QB50P2 11 Dec 00:36:07 00:40:20 64° 287° (WNW) 00:44:31 145.880/145.840
POLYITAN 1 11 Dec 00:36:28 00:40:42 67° 287° (WNW) 00:44:52 437.675
50 SAT 11 Dec 00:39:18 00:41:49 18° 267° (W) 00:44:21 437.505
SO-50 11 Dec 00:39:39 00:41:59 14° 14° (NNE) 00:44:18 436.795
DUCHIFAT 1 11 Dec 00:44:02 00:48:15 65° 287° (WNW) 00:52:23 145.980
Oscar 19 11 Dec 00:44:16 00:47:30 16° 88° (E) 00:50:43 437.125/150
SWISSCUBE 11 Dec 00:46:49 00:50:19 21° 60° (ENE) 00:53:50 437.505
QB50P1 11 Dec 00:47:44 00:51:53 52° 289° (WNW) 00:55:58 145.935-145.965
BEESAT 11 Dec 00:50:18 00:53:46 20° 59° (ENE) 00:57:14 436.000
PHONESAT 2.4 11 Dec 01:03:37 01:04:57 13° 185° (S) 01:06:17 2401.200-2431.200
POPSAT HIP 1 11 Dec 01:10:06 01:13:55 33° 293° (WNW) 01:17:42 437.405
AO-85 11 Dec 01:15:28 01:20:11 54° 123° (ESE) 01:24:34 145.980
BUGSAT 1 11 Dec 01:18:12 01:22:23 71° 286° (WNW) 01:26:28 437.445
ITUPSAT 1 11 Dec 01:20:42 01:24:59 34° 65° (ENE) 01:29:18 437.325
Gurwin Techsat 1B 11 Dec 01:24:22 01:28:14 20° 90° (E) 01:32:04 435.225
TISAT 1 11 Dec 01:25:34 01:29:43 51° 260° (W) 01:33:53 437.305
AUBIESAT-1 11 Dec 01:27:43 01:31:54 47° 63° (ENE) 01:36:19 437.475
M-CUBED/EXP-1 PRIME 11 Dec 01:44:37 01:48:58 80° 68° (ENE) 01:53:36 437.505
JAS-2 11 Dec 01:47:36 01:51:10 19° 303° (WNW) 01:54:51 435.910
O/OREOS (USA 219) 11 Dec 01:49:22 01:53:09 27° 255° (WSW) 01:56:53 437.305
Cosmos 2499 11 Dec 01:58:17 02:06:29 42° 293° (WNW) 02:14:50 435.465 / 435.565
NANOSAT C BR1 11 Dec 02:02:08 02:04:03 13° 303° (WNW) 02:05:58 145.865
SO-50 11 Dec 02:19:39 02:23:49 33° 37° (NE) 02:27:54 436.795
GONETS M04 11 Dec 02:21:51 02:29:39 36° 295° (WNW) 02:37:31
Oscar 19 11 Dec 02:22:13 02:27:27 79° 287° (WNW) 02:32:39 437.125/150
SWISSCUBE 11 Dec 02:23:00 02:27:43 61° 258° (WSW) 02:32:27 437.505
BEESAT 11 Dec 02:26:24 02:31:08 63° 258° (WSW) 02:35:53 436.000
AO-7 11 Dec 02:26:39 02:31:26 16° 85° (E) 02:36:09 29.400- 29.500
STARS 11 Dec 02:27:06 02:27:14 10° 53° (NE) 02:27:22 437.465
KKS-1 11 Dec 02:33:10 02:36:33 22° 61° (ENE) 02:39:58 437.445
MOZHAYETS 4 11 Dec 02:42:42 02:47:08 52° 70° (ENE) 02:51:35
AO-85 11 Dec 02:56:41 03:00:50 30° 322° (NW) 03:04:43 145.980
ITUPSAT 1 11 Dec 02:58:30 03:02:49 34° 264° (W) 03:07:10 437.325
CUBESAT XI-V 11 Dec 03:02:34 03:05:22 16° 58° (ENE) 03:08:11 437.345
AUBIESAT-1 11 Dec 03:03:00 03:06:31 24° 262° (W) 03:10:12 437.475
ITAMSAT 1 11 Dec 03:03:08 03:07:49 33° 96° (E) 03:12:28 435.822/435.867
Gurwin Techsat 1B 11 Dec 03:03:23 03:08:41 68° 289° (WNW) 03:13:57 435.225
M-CUBED/EXP-1 PRIME 11 Dec 03:21:44 03:24:03 14° 268° (W) 03:26:25 437.505
YUBILEINY 11 Dec 03:54:17 04:00:41 21° 54° (NE) 04:07:03 435.215
BEESAT 3 11 Dec 03:57:11 04:00:47 37° 120° (ESE) 04:04:27 437.485
STARS 11 Dec 03:58:20 04:02:43 64° 72° (ENE) 04:07:08 437.465
Cosmos 2499 11 Dec 03:59:44 04:02:38 12° 319° (NW) 04:05:33 435.465 / 435.565
SO-50 11 Dec 04:00:05 04:04:27 47° 238° (WSW) 04:08:43 436.795
Oscar 19 11 Dec 04:03:08 04:05:58 15° 307° (NW) 04:08:49 437.125/150
KKS-1 11 Dec 04:08:25 04:12:48 52° 260° (W) 04:17:13 437.445
AO-7 11 Dec 04:17:23 04:25:47 69° 106° (ESE) 04:34:07 29.400- 29.500
MOZHAYETS 4 11 Dec 04:21:10 04:24:36 21° 269° (W) 04:28:02
Cosmos 2491 11 Dec 04:36:02 04:38:57 12° 68° (ENE) 04:41:51 435.465 / 435.565
CUBESAT XI-V 11 Dec 04:37:35 04:42:11 77° 258° (WSW) 04:46:49 437.345
BEESAT 2 11 Dec 04:38:29 04:42:16 45° 122° (ESE) 04:46:07 435.950
AO-85 11 Dec 04:40:59 04:42:33 12° 345° (NNW) 04:44:06 145.980
ITAMSAT 1 11 Dec 04:42:33 04:47:22 39° 295° (WNW) 04:52:08 435.822/435.867
Gurwin Techsat 1B 11 Dec 04:45:17 04:47:41 13° 309° (NW) 04:50:07 435.225
HORYU 2 11 Dec 05:09:36 05:13:12 24° 94° (E) 05:16:47 437.375
RS-15 11 Dec 05:14:43 05:22:50 22° 97° (E) 05:31:07 29.354- 29.394
Cosmos 2504 11 Dec 05:16:45 05:24:22 31° 61° (ENE) 05:31:34 435.465 / 435.565
BRITE-PL 11 Dec 05:18:41 05:24:03 48° 98° (E) 05:29:33 437.365/2234.400
CUTE-I 11 Dec 05:20:21 05:22:13 12° 85° (E) 05:24:05 437.470
NOAA 15 11 Dec 05:23:37 05:26:19 14° 87° (E) 05:28:58 137.62
BEESAT 3 11 Dec 05:34:55 05:38:28 32° 320° (NW) 05:42:04 437.485
STARS 11 Dec 05:36:43 05:39:30 16° 270° (W) 05:42:17 437.465
STRAND 1 11 Dec 05:41:59 05:46:14 27° 61° (ENE) 05:50:29 437.568
DOVE 4 11 Dec 05:45:28 05:49:04 18° 87° (E) 05:52:34 437.250
Cubesat XI-IV 11 Dec 05:46:39 05:50:32 20° 90° (E) 05:54:24 437.490
YUBILEINY 11 Dec 05:50:18 05:59:11 77° 79° (E) 06:08:02 435.215
AIST 1 11 Dec 05:52:13 05:56:21 38° 73° (ENE) 06:00:28
GOMX 1 11 Dec 06:03:14 06:08:39 54° 99° (E) 06:13:59 467.674
LilacSat-2 11 Dec 06:10:05 06:13:26 29° 95° (E) 06:16:45 437.200
AO-7 11 Dec 06:10:41 06:18:03 36° 308° (NW) 06:25:25 29.400- 29.500
NOAA 18 11 Dec 06:16:33 06:20:55 23° 92° (E) 06:25:15 137.9125
BEESAT 2 11 Dec 06:16:46 06:20:14 28° 322° (NW) 06:23:45 435.950
AIST 2 11 Dec 06:20:21 06:22:59 17° 112° (ESE) 06:25:38 435.215
HO-68 11 Dec 06:23:26 06:24:42 10° 80° (E) 06:25:58 435.675
AO-85 11 Dec 06:24:07 06:24:55 10° 10° (N) 06:25:43 145.980
Cosmos 2491 11 Dec 06:25:15 06:33:42 56° 90° (E) 06:42:09 435.465 / 435.565
HORYU 2 11 Dec 06:45:44 06:49:56 42° 292° (WNW) 06:54:04 437.375
BRITE-PL 11 Dec 06:57:31 07:02:20 32° 296° (WNW) 07:07:17 437.365/2234.400
CUTE-I 11 Dec 06:57:50 07:03:11 76° 104° (ESE) 07:08:30 437.470
NOAA 15 11 Dec 07:01:32 07:06:52 87° 107° (ESE) 07:12:10 137.62
Cosmos 2504 11 Dec 07:09:54 07:18:41 74° 265° (W) 07:26:54 435.465 / 435.565
BEESAT 3 11 Dec 07:16:14 07:17:17 11° 343° (NNW) 07:18:21 437.485
STRAND 1 11 Dec 07:20:10 07:25:09 50° 260° (W) 07:30:09 437.568
RS-15 11 Dec 07:21:17 07:33:03 74° 121° (ESE) 07:45:20 29.354- 29.394
DOVE 4 11 Dec 07:22:01 07:27:19 73° 287° (WNW) 07:32:24 437.250
Cubesat XI-IV 11 Dec 07:25:49 07:31:08 67° 289° (WNW) 07:36:24 437.490
AIST 1 11 Dec 07:30:12 07:33:45 24° 272° (W) 07:37:18
CUBEBUG 2 11 Dec 07:38:01 07:40:00 13° 87° (E) 07:41:58 437.445
GOMX 1 11 Dec 07:41:47 07:46:25 28° 298° (WNW) 07:51:00 467.674
LilacSat-2 11 Dec 07:44:30 07:47:40 25° 293° (WNW) 07:50:48 437.200
YUBILEINY 11 Dec 07:48:04 07:55:06 28° 281° (W) 08:02:09 435.215
NOAA 18 11 Dec 07:56:32 08:02:00 61° 291° (WNW) 08:07:25 137.9125
AAUSAT CUBESAT 2 11 Dec 07:56:43 07:59:29 17° 90° (E) 08:02:16 437.432
AIST 2 11 Dec 07:56:51 08:00:58 69° 311° (NW) 08:05:10 435.215
CINEMA 3 11 Dec 07:57:56 08:02:44 74° 102° (ESE) 08:07:15 145.822/145.860
BEESAT 2 11 Dec 07:58:37 07:59:19 10° 345° (NNW) 08:00:02 435.950
CUTE 1.7 + AOD 2 11 Dec 08:00:53 08:05:00 48° 99° (E) 08:09:05 437.475
AO-85 11 Dec 08:03:22 08:06:48 25° 35° (NE) 08:10:07 145.980
PRISM 11 Dec 08:04:30 08:08:18 38° 68° (ENE) 08:12:08 437.425
AO-7 11 Dec 08:05:18 08:08:26 13° 332° (NNW) 08:11:34 29.400- 29.500
HO-68 11 Dec 08:06:58 08:14:04 56° 101° (ESE) 08:21:06 435.675
UWE-3 11 Dec 08:07:23 08:10:07 16° 89° (E) 08:12:48 435.000/436.395/437.385
CANX-2 11 Dec 08:20:06 08:24:22 87° 105° (ESE) 08:28:36 2200.000
Cosmos 2491 11 Dec 08:22:48 08:30:54 40° 293° (WNW) 08:39:02 435.465 / 435.565
COMPASS 1 11 Dec 08:32:09 08:36:12 48° 99° (E) 08:40:15 437.405
SEEDS 11 Dec 08:33:04 08:37:17 73° 102° (ESE) 08:41:28 437.485
ZACube-1 11 Dec 08:34:45 08:37:49 19° 91° (E) 08:40:49 437.345
GONETS M04 11 Dec 08:35:33 08:36:45 10° 38° (NE) 08:37:58
CUTE-I 11 Dec 08:38:53 08:42:40 20° 304° (WNW) 08:46:28 437.470
FUNcube-1 11 Dec 08:38:56 08:42:01 20° 91° (E) 08:45:03 145.935
NOAA 15 11 Dec 08:42:33 08:45:58 18° 305° (NW) 08:49:25 137.62
CUSAT 1 11 Dec 08:48:34 08:50:58 29° 96° (E) 08:53:17 437.405
UNISAT 6 11 Dec 08:49:09 08:53:12 30° 66° (ENE) 08:57:12 437.425
Oscar 11 11 Dec 09:01:17 09:05:11 32° 96° (E) 09:09:02 145.826/435.025
DOVE 4 11 Dec 09:01:26 09:04:04 14° 307° (NW) 09:06:40 437.250
Cosmos 2504 11 Dec 09:05:11 09:10:27 18° 288° (WNW) 09:15:33 435.465 / 435.565
Cubesat XI-IV 11 Dec 09:07:49 09:10:15 13° 309° (NW) 09:12:41 437.490
CUBEBUG 2 11 Dec 09:12:51 09:17:14 75° 286° (WNW) 09:21:26 437.445
TIGRISAT 11 Dec 09:16:42 09:21:11 50° 70° (ENE) 09:25:37 435.000
ANTELSAT 11 Dec 09:19:42 09:24:15 56° 71° (ENE) 09:28:45 437.575/2403.000
AAUSAT CUBESAT 2 11 Dec 09:31:14 09:35:17 53° 288° (WNW) 09:39:20 437.432
RS-15 11 Dec 09:34:48 09:46:29 52° 330° (NNW) 09:58:34 29.354- 29.394
CINEMA 3 11 Dec 09:36:10 09:39:15 17° 302° (WNW) 09:42:15 145.822/145.860
CUTE 1.7 + AOD 2 11 Dec 09:37:24 09:40:32 21° 297° (WNW) 09:43:40 437.475
AIST 2 11 Dec 09:37:24 09:40:12 17° 333° (NNW) 09:43:01 435.215
DELFI C3 11 Dec 09:37:46 09:41:15 28° 95° (E) 09:44:43 145.870
NOAA 18 11 Dec 09:39:13 09:41:37 13° 311° (NW) 09:44:00 137.9125
PRISM 11 Dec 09:40:27 09:43:43 23° 266° (W) 09:47:01 437.425
UWE-3 11 Dec 09:42:46 09:46:59 56° 288° (WNW) 09:51:04 435.000/436.395/437.385
AO-85 11 Dec 09:43:34 09:47:30 53° 237° (WSW) 09:51:16 145.980
NANOSAT C BR1 11 Dec 09:47:01 09:49:21 15° 58° (ENE) 09:51:42 145.865
Cosmos 2499 11 Dec 09:51:33 09:58:39 28° 59° (ENE) 10:05:21 435.465 / 435.565
HO-68 11 Dec 09:55:05 10:01:34 38° 302° (WNW) 10:08:01 435.675
CANX-2 11 Dec 09:57:44 09:59:35 13° 302° (WNW) 10:01:27 2200.000
QB50P2 11 Dec 09:57:51 10:01:00 20° 62° (ENE) 10:04:09 145.880/145.840
POLYITAN 1 11 Dec 09:58:18 10:01:22 20° 61° (ENE) 10:04:27 437.675
DUCHIFAT 1 11 Dec 10:05:11 10:08:14 20° 61° (ENE) 10:11:18 145.980
COMPASS 1 11 Dec 10:08:24 10:11:27 20° 297° (WNW) 10:14:31 437.405
QB50P1 11 Dec 10:08:54 10:12:19 24° 63° (ENE) 10:15:46 145.935-145.965
SEEDS 11 Dec 10:10:07 10:12:27 15° 301° (WNW) 10:14:48 437.485
ZACube-1 11 Dec 10:10:19 10:14:22 46° 290° (WNW) 10:18:21 437.345
FUNcube-1 11 Dec 10:14:30 10:18:31 45° 290° (WNW) 10:22:28 145.935
JAS-2 11 Dec 10:17:38 10:23:25 52° 69° (ENE) 10:28:40 435.910
UNISAT 6 11 Dec 10:25:32 10:29:50 36° 263° (W) 10:34:05 437.425
GONETS M04 11 Dec 10:28:43 10:36:49 40° 67° (ENE) 10:44:53
Cosmos 2491 11 Dec 10:29:30 10:30:58 10° 321° (NW) 10:32:27 435.465 / 435.565
POPSAT HIP 1 11 Dec 10:30:26 10:34:21 36° 68° (ENE) 10:38:17 437.405
DANDE 11 Dec 10:32:30 10:36:00 46° 284° (WNW) 10:38:51 436.750
BEESAT 3 11 Dec 10:33:07 10:35:58 18° 31° (NNE) 10:38:48 437.485
PCSat 11 Dec 10:33:30 10:38:40 48° 117° (ESE) 10:43:53 145.827
Oscar 11 11 Dec 10:37:30 10:41:16 30° 294° (WNW) 10:45:02 145.826/435.025
BUGSAT 1 11 Dec 10:37:41 10:40:31 18° 60° (ENE) 10:43:23 437.445
HUMSAT D 11 Dec 10:44:47 10:48:52 78° 101° (E) 10:52:57 437.325/437.525
CUBEBUG 2 11 Dec 10:52:00 10:53:01 11° 306° (NW) 10:54:02 437.445
TIGRISAT 11 Dec 10:54:32 10:58:08 22° 268° (W) 11:01:42 435.000
ANTELSAT 11 Dec 10:57:54 11:01:16 20° 269° (W) 11:04:37 437.575/2403.000
DELFI C3 11 Dec 11:12:33 11:16:03 30° 293° (WNW) 11:19:32 145.870
BEESAT 2 11 Dec 11:15:10 11:18:17 21° 33° (NNE) 11:21:24 435.950
NANOSAT C BR1 11 Dec 11:20:15 11:24:31 77° 257° (WSW) 11:28:49 145.865
QB50P2 11 Dec 11:32:18 11:36:28 51° 260° (W) 11:40:41 145.880/145.840
POLYITAN 1 11 Dec 11:32:37 11:36:49 53° 260° (W) 11:41:03 437.675
DUCHIFAT 1 11 Dec 11:39:24 11:43:34 53° 260° (W) 11:47:46 145.980
AISAT 11 Dec 11:41:29 11:44:58 22° 92° (E) 11:48:26 437.250
AO-7 11 Dec 11:43:08 11:46:21 13° 28° (NNE) 11:49:34 29.400- 29.500
QB50P1 11 Dec 11:43:49 11:47:53 42° 262° (W) 11:51:58 145.935-145.965
Cosmos 2499 11 Dec 11:44:17 11:52:54 81° 263° (W) 12:00:49 435.465 / 435.565
HO-68 11 Dec 11:45:52 11:47:19 11° 325° (NW) 11:48:45 435.675
CUBEBUG 1 11 Dec 11:50:52 11:55:00 36° 97° (E) 11:59:06 437.445
RS-15 11 Dec 11:51:14 12:02:29 38° 3° (N) 12:13:48 29.354- 29.394
ESTCUBE 1 11 Dec 12:00:08 12:04:41 70° 103° (ESE) 12:09:11 437.505/2401.250
50 SAT 11 Dec 12:00:25 12:03:19 23° 95° (E) 12:06:12 437.505
JAS-2 11 Dec 12:03:43 12:08:46 28° 266° (W) 12:13:28 435.910
Oscar 19 11 Dec 12:04:33 12:09:12 36° 65° (ENE) 12:13:53 437.125/150
SPROUT 11 Dec 12:05:35 12:09:06 24° 93° (E) 12:12:36 437.525
UKube-1 11 Dec 12:06:33 12:09:05 15° 90° (E) 12:11:37 .
POPSAT HIP 1 11 Dec 12:06:36 12:10:13 26° 266° (W) 12:13:51 437.405
BEESAT 3 11 Dec 12:10:09 12:14:10 87° 52° (NE) 12:18:10 437.485
DX 1 11 Dec 12:10:53 12:14:19 22° 93° (E) 12:17:44 434.975-435.025
BUGSAT 1 11 Dec 12:11:16 12:15:29 61° 259° (W) 12:19:43 437.445
PCSat 11 Dec 12:17:13 12:22:14 37° 317° (NW) 12:27:17 145.827
VELOX 1 11 Dec 12:17:25 12:21:44 44° 99° (E) 12:26:00 145.980
HUMSAT D 11 Dec 12:21:58 12:23:57 13° 301° (WNW) 12:25:54 437.325/437.525
GONETS M04 11 Dec 12:25:34 12:34:01 57° 270° (W) 12:42:29
ITAMSAT 1 11 Dec 12:48:45 12:51:30 15° 53° (NE) 12:54:14 435.822/435.867
Gurwin Techsat 1B 11 Dec 12:49:03 12:54:07 46° 67° (ENE) 12:59:12 435.225
BEESAT 2 11 Dec 12:52:30 12:56:32 77° 234° (SW) 13:00:34 435.950
AIST 2 11 Dec 12:58:31 13:00:43 14° 21° (NNE) 13:02:54 435.215
TISAT 1 11 Dec 13:05:59 13:08:57 18° 91° (E) 13:11:52 437.305
AISAT 11 Dec 13:17:22 13:21:41 47° 291° (WNW) 13:25:57 437.250
CUBEBUG 1 11 Dec 13:27:22 13:31:11 28° 295° (WNW) 13:34:58 437.445
AO-7 11 Dec 13:29:24 13:36:46 37° 53° (NE) 13:44:09 29.400- 29.500
50 SAT 11 Dec 13:33:29 13:36:37 29° 292° (WNW) 13:39:45 437.505
ESTCUBE 1 11 Dec 13:38:03 13:40:59 17° 301° (WNW) 13:43:55 437.505/2401.250
Cosmos 2499 11 Dec 13:39:06 13:44:33 19° 287° (WNW) 13:49:47 435.465 / 435.565
SPROUT 11 Dec 13:41:09 13:45:10 39° 292° (WNW) 13:49:09 437.525
UKube-1 11 Dec 13:41:15 13:45:35 66° 288° (WNW) 13:49:52 .
Oscar 19 11 Dec 13:43:47 13:48:31 37° 263° (W) 13:53:18 437.125/150
DX 1 11 Dec 13:46:31 13:50:44 46° 291° (WNW) 13:54:55 434.975-435.025
BEESAT 3 11 Dec 13:49:34 13:51:11 12° 250° (WSW) 13:52:47 437.485
VELOX 1 11 Dec 13:54:21 13:57:58 24° 297° (WNW) 14:01:33 145.980
PCSat 11 Dec 14:04:19 14:07:14 14° 342° (NNW) 14:10:10 145.827
RS-15 11 Dec 14:06:00 14:18:14 57° 35° (NE) 14:30:11 29.354- 29.394
SWISSCUBE 11 Dec 14:19:20 14:23:15 25° 93° (E) 14:27:08 437.505
BEESAT 11 Dec 14:22:44 14:26:36 24° 93° (E) 14:30:27 436.000
ITAMSAT 1 11 Dec 14:24:56 14:30:08 76° 72° (ENE) 14:35:22 435.822/435.867
GONETS M04 11 Dec 14:25:49 14:28:46 12° 292° (WNW) 14:31:44
O/OREOS (USA 219) 11 Dec 14:27:00 14:30:21 20° 102° (ESE) 14:33:42 437.305
Gurwin Techsat 1B 11 Dec 14:29:39 14:34:15 29° 266° (W) 14:38:54 435.225
AIST 2 11 Dec 14:36:10 14:40:14 43° 43° (NE) 14:44:18 435.215
AUBIESAT-1 11 Dec 14:37:20 14:40:34 19° 96° (E) 14:43:41 437.475
